Weather History for KCKP - April, 2013

Change the Weather History Date:

Friday, April 12, 2013

  Actual Average Record
Temperature  
Mean Temperature 32 °F -  
Max Temperature 35 °F 57 °F 84 °F (1968)
Min Temperature 30 °F 35 °F 13 °F (1957)
Degree Days  
Heating Degree Days 32    
Moisture  
Dew Point 28 °F    
Average Humidity 85    
Maximum Humidity 99    
Minimum Humidity 73    
Precipitation  
Precipitation 0.00 in - - ()
Sea Level Pressure  
Sea Level Pressure 29.81 in    
Wind  
Wind Speed 11 mph (NW)    
Max Wind Speed 21 mph    
Max Gust Speed 26 mph    
Visibility 10 miles    
Events      
Averages and records for this station are not official NWS values.
T = Trace of Precipitation, MM = Missing Value Source: NWS Daily Summary

Daily Weather History Graph

Daily Weather History Graph

Search for Another Location

Airport or City:

Trip Planner

Search our weather history database for the weather conditions in past years. The results will help you decide how hot, cold, wet, or windy it might be!

Date:

Astronomy

Apr. 12, 2013 Rise Set
Actual Time 6:45 AM CDT 8:01 PM CDT
Civil Twilight 6:16 AM CDT 8:30 PM CDT
Nautical Twilight 5:41 AM CDT 9:05 PM CDT
Astronomical Twilight 5:04 AM CDT 9:42 PM CDT
Moon 7:52 AM CDT (4/12) 10:36 PM CDT (4/12)
Length of Visible Light 14h 14m
Length of Day
13h 16m
Waxing Crescent, 5% of the Moon is Illuminated
Apr 12
Waxing Crescent
Apr 18
First Quarter
Apr 25
Full
May 2
Last Quarter
May 9
New

Hourly Weather History & Observations

Time (CDT) Temp. Windchill Dew Point Humidity Pressure Visibility Wind Dir Wind Speed Gust Speed Precip Events Conditions
12:15 AM 32.4 °F 24.6 °F 32.0 °F 99% 29.67 in 5.0 mi NNW 9.2 mph - N/A   Overcast
12:35 AM 32.4 °F 24.6 °F 32.0 °F 99% 29.67 in 5.0 mi NNW 9.2 mph - N/A   Overcast
12:55 AM 32.4 °F 24.6 °F 32.0 °F 99% 29.67 in 7.0 mi NNW 9.2 mph - N/A   Overcast
1:15 AM 32.2 °F 24.4 °F 31.6 °F 98% 29.67 in 7.0 mi NNW 9.2 mph - N/A   Overcast
1:35 AM 32.4 °F 26.0 °F 31.6 °F 97% 29.67 in 10.0 mi NW 6.9 mph - N/A   Overcast
1:55 AM 32.4 °F 24.6 °F 31.5 °F 96% 29.68 in 10.0 mi NNW 9.2 mph - N/A   Overcast
2:15 AM 32.4 °F 24.6 °F 31.5 °F 96% 29.68 in 10.0 mi NNW 9.2 mph - N/A   Overcast
2:35 AM 32.2 °F 25.0 °F 31.1 °F 96% 29.69 in 10.0 mi NNW 8.1 mph - N/A   Overcast
2:55 AM 32.2 °F 24.4 °F 31.1 °F 96% 29.68 in 10.0 mi NNW 9.2 mph - N/A   Overcast
3:15 AM 32.0 °F 24.2 °F 31.1 °F 96% 29.69 in 10.0 mi NNW 9.2 mph - N/A   Overcast
3:35 AM 32.0 °F 23.6 °F 30.7 °F 95% 29.69 in 10.0 mi NNW 10.4 mph - N/A   Overcast
3:55 AM 32.0 °F 23.0 °F 30.4 °F 94% 29.69 in 10.0 mi NNW 11.5 mph - N/A   Overcast
4:15 AM 32.0 °F 23.0 °F 30.2 °F 93% 29.69 in 10.0 mi NNW 11.5 mph 18.4 mph N/A   Overcast
4:35 AM 31.5 °F 21.8 °F 29.3 °F 92% 29.70 in 10.0 mi North 12.7 mph 16.1 mph N/A   Overcast
4:55 AM 31.1 °F 22.4 °F 29.1 °F 92% 29.70 in 10.0 mi NNW 10.4 mph - N/A   Overcast
5:15 AM 31.1 °F 24.5 °F 29.1 °F 92% 29.70 in 10.0 mi NNW 6.9 mph - N/A   Overcast
5:35 AM 30.9 °F 21.2 °F 28.4 °F 90% 29.71 in 10.0 mi North 12.7 mph 19.6 mph N/A   Overcast
5:55 AM 30.9 °F 21.7 °F 28.4 °F 90% 29.71 in 10.0 mi NNW 11.5 mph - N/A   Overcast
6:15 AM 30.9 °F 21.2 °F 28.6 °F 91% 29.72 in 10.0 mi NNW 12.7 mph 18.4 mph N/A   Overcast
6:35 AM 30.9 °F 22.2 °F 28.4 °F 90% 29.72 in 10.0 mi NNW 10.4 mph 17.3 mph N/A   Overcast
6:55 AM 30.7 °F 21.4 °F 28.2 °F 90% 29.73 in 10.0 mi NNW 11.5 mph - N/A   Overcast
7:15 AM 30.6 °F 21.8 °F 28.0 °F 90% 29.74 in 10.0 mi NW 10.4 mph 16.1 mph N/A   Overcast
7:35 AM 30.6 °F 20.7 °F 27.9 °F 90% 29.74 in 10.0 mi NNW 12.7 mph 18.4 mph N/A   Overcast
7:55 AM 30.7 °F 21.4 °F 27.5 °F 88% 29.75 in 10.0 mi NW 11.5 mph 20.7 mph N/A   Overcast
8:15 AM 30.7 °F 22.0 °F 27.5 °F 88% 29.76 in 10.0 mi NW 10.4 mph - N/A   Overcast
8:35 AM 30.6 °F 20.2 °F 27.5 °F 88% 29.77 in 10.0 mi NNW 13.8 mph 18.4 mph N/A   Overcast
8:55 AM 30.6 °F 22.4 °F 26.8 °F 86% 29.78 in 10.0 mi NW 9.2 mph 19.6 mph N/A   Overcast
9:15 AM 30.9 °F 20.2 °F 27.1 °F 86% 29.79 in 10.0 mi NW 15.0 mph 20.7 mph N/A   Overcast
9:55 AM 31.3 °F 19.5 °F 26.8 °F 83% 29.80 in 10.0 mi NNW 18.4 mph 23.0 mph N/A   Overcast
10:15 AM 30.9 °F 21.7 °F 26.8 °F 85% 29.81 in 10.0 mi NW 11.5 mph 18.4 mph N/A   Overcast
10:35 AM 31.3 °F 20.7 °F 27.1 °F 85% 29.82 in 10.0 mi NW 15.0 mph 20.7 mph N/A   Overcast
10:55 AM 32.0 °F 22.1 °F 26.6 °F 80% 29.82 in 10.0 mi NW 13.8 mph 20.7 mph N/A   Overcast
11:15 AM 32.0 °F 23.0 °F 27.0 °F 82% 29.83 in 10.0 mi NW 11.5 mph 21.9 mph N/A   Overcast
11:35 AM 32.0 °F 22.1 °F 27.3 °F 83% 29.83 in 10.0 mi WNW 13.8 mph 19.6 mph N/A   Overcast
11:55 AM 32.7 °F 24.5 °F 28.0 °F 83% 29.83 in 10.0 mi NW 10.4 mph 19.6 mph N/A   Overcast
12:15 PM 34.0 °F 25.0 °F 29.1 °F 82% 29.83 in 10.0 mi WNW 12.7 mph 19.6 mph N/A   Overcast
12:35 PM 34.7 °F 25.9 °F 28.8 °F 79% 29.83 in 10.0 mi NW 12.7 mph 23.0 mph N/A   Overcast
12:55 PM 33.6 °F 25.0 °F 28.8 °F 82% 29.83 in 10.0 mi WNW 11.5 mph 20.7 mph N/A   Overcast
1:15 PM 33.1 °F 24.4 °F 28.6 °F 84% 29.84 in 10.0 mi NW 11.5 mph 20.7 mph N/A   Overcast
1:35 PM 32.9 °F 23.2 °F 28.2 °F 83% 29.84 in 10.0 mi WNW 13.8 mph 23.0 mph N/A   Overcast
1:55 PM 33.3 °F 23.2 °F 28.4 °F 82% 29.84 in 10.0 mi WNW 15.0 mph 21.9 mph N/A   Overcast
2:15 PM 34.7 °F 24.7 °F 28.4 °F 78% 29.85 in 10.0 mi WNW 16.1 mph 24.2 mph N/A   Overcast
2:35 PM 35.8 °F 26.5 °F 29.1 °F 77% 29.85 in 10.0 mi NW 15.0 mph 23.0 mph N/A   Overcast
2:55 PM 33.8 °F 22.5 °F 27.5 °F 78% 29.86 in 10.0 mi WNW 19.6 mph 26.5 mph N/A   Overcast
3:15 PM 34.7 °F 24.7 °F 28.0 °F 77% 29.86 in 10.0 mi WNW 16.1 mph 23.0 mph N/A   Overcast
3:35 PM 34.5 °F 24.1 °F 28.2 °F 78% 29.87 in 10.0 mi WNW 17.3 mph 24.2 mph N/A   Overcast
3:55 PM 33.4 °F 23.1 °F 27.1 °F 78% 29.87 in 10.0 mi West 16.1 mph 24.2 mph N/A   Overcast
4:15 PM 34.0 °F 24.2 °F 27.1 °F 76% 29.87 in 10.0 mi WNW 15.0 mph 23.0 mph N/A   Overcast
4:35 PM 33.1 °F 21.2 °F 26.8 °F 78% 29.88 in 10.0 mi WNW 20.7 mph 26.5 mph N/A   Overcast
4:55 PM 32.9 °F 21.3 °F 26.2 °F 76% 29.89 in 10.0 mi West 19.6 mph 25.3 mph N/A   Overcast
5:15 PM 32.5 °F 21.9 °F 25.9 °F 76% 29.89 in 10.0 mi WNW 16.1 mph 25.3 mph N/A   Overcast
5:35 PM 32.5 °F 21.2 °F 25.3 °F 75% 29.89 in 10.0 mi West 18.4 mph 25.3 mph N/A   Overcast
5:55 PM 33.4 °F 23.1 °F 25.9 °F 74% 29.89 in 10.0 mi WNW 16.1 mph 26.5 mph N/A   Overcast
6:15 PM 32.2 °F 21.4 °F 25.0 °F 75% 29.90 in 10.0 mi WNW 16.1 mph 24.2 mph N/A   Overcast
6:35 PM 32.4 °F 22.5 °F 24.4 °F 73% 29.90 in 10.0 mi WNW 13.8 mph 24.2 mph N/A   Overcast
6:55 PM 32.0 °F 20.8 °F 25.5 °F 77% 29.91 in 10.0 mi WNW 17.3 mph 21.9 mph N/A   Overcast
7:15 PM 32.0 °F 23.6 °F 25.7 °F 78% 29.91 in 10.0 mi WNW 10.4 mph 19.6 mph N/A   Overcast
7:35 PM 31.8 °F 21.4 °F 25.5 °F 78% 29.92 in 10.0 mi WNW 15.0 mph 23.0 mph N/A   Overcast
7:55 PM 31.6 °F 22.6 °F 25.2 °F 77% 29.92 in 10.0 mi WNW 11.5 mph 21.9 mph N/A   Overcast
8:15 PM 31.6 °F 22.1 °F 25.7 °F 79% 29.92 in 10.0 mi WNW 12.7 mph - N/A   Overcast
8:35 PM 31.5 °F 22.3 °F 25.7 °F 79% 29.92 in 10.0 mi WNW 11.5 mph 16.1 mph N/A   Overcast
8:55 PM 31.5 °F 20.9 °F 25.7 °F 79% 29.92 in 10.0 mi WNW 15.0 mph 19.6 mph N/A   Overcast
9:15 PM 31.5 °F 21.8 °F 25.7 °F 79% 29.92 in 10.0 mi WNW 12.7 mph 18.4 mph N/A   Overcast
9:35 PM 31.3 °F 21.6 °F 25.7 °F 80% 29.93 in 10.0 mi WNW 12.7 mph 17.3 mph N/A   Overcast
9:55 PM 31.3 °F 22.1 °F 26.1 °F 81% 29.94 in 10.0 mi WNW 11.5 mph - N/A   Overcast
10:15 PM 31.1 °F 21.9 °F 25.7 °F 80% 29.94 in 10.0 mi WNW 11.5 mph 19.6 mph N/A   Overcast
10:35 PM 31.1 °F 22.4 °F 25.5 °F 80% 29.94 in 10.0 mi WNW 10.4 mph - N/A   Overcast
10:55 PM 31.1 °F 21.9 °F 25.7 °F 80% 29.94 in 10.0 mi WNW 11.5 mph 17.3 mph N/A   Overcast
11:15 PM 31.1 °F 22.4 °F 25.7 °F 80% 29.94 in 10.0 mi WNW 10.4 mph - N/A   Overcast
11:35 PM 30.9 °F 22.2 °F 25.3 °F 80% 29.94 in 10.0 mi WNW 10.4 mph 16.1 mph N/A   Overcast
11:55 PM 30.2 °F - 25.2 °F 82% 29.95 in 10.0 mi Calm Calm - N/A   Scattered Clouds